Simultaneous Nadir Overpasses (SNOs) Predictions

Prediction of SNOs between LANDSAT-8 and METOP-B Satellite Orbit:

Table of predicted SNOs for the next 14.0 days since TLE Epoch: 4/13/2019
Index Date (LANDSAT-8) Time (LANDSAT-8) Lat,Lon (LANDSAT-8) SZA (LANDSAT-8 ) Date (METOP-B) Time (METOP-B) Lat,Lon (METOP-B) SZA (METOP-B ) Distance(km) Time Diff (sec)
1 04/13/2019 20:35:49 81.10, -89.93 73.91 04/13/2019 20:35:20 81.10, -89.78 73.92 2.71 29
2 04/13/2019 21:25:14 -81.12, 78.02 106.06 04/13/2019 21:25:58 -81.12, 78.15 106.02 2.14 44
3 04/16/2019 16:10:02 81.10, -23.48 72.93 04/16/2019 16:09:43 81.09, -23.55 72.91 1.28 19
4 04/16/2019 16:59:28 -81.12, 144.51 107.03 04/16/2019 17:00:22 -81.12, 144.41 107.02 1.73 54
5 04/19/2019 11:44:16 81.10, 42.94 71.96 04/19/2019 11:44:06 81.10, 43.04 71.97 1.76 10
6 04/19/2019 12:33:42 -81.12,-149.04 108.00 04/19/2019 12:34:45 -81.12,-148.96 107.96 1.47 63
7 04/22/2019 06:29:11 -80.92, -60.76 109.36 04/22/2019 06:27:57 -80.98, -60.93 109.36 7.40 74
8 04/22/2019 07:18:30 81.09, 109.33 71.01 04/22/2019 07:18:30 81.09, 109.24 71.00 1.47 0
9 04/22/2019 08:07:56 -81.12, -82.63 108.94 04/22/2019 08:09:09 -81.12, -82.72 108.92 1.48 73
10 04/25/2019 02:03:17 -81.09, 8.09 109.90 04/25/2019 02:02:12 -81.09, 8.25 109.91 2.78 65




NCC Satellite Simultaneous Nadir Overpasses (SNOs) Prediction Service
